| Back to River Map | <<< Previous Forecast Point | | | Next Forecast Point >>> | Printer Version | Graph Version |  |
|
SPRAGUE RIVER - CHILOQUIN (CHSO3)
| Latitude: 42.58º N | Longitude: 121.85º W | Elevation: 4202 Feet | | Forecast Type: Unofficial Location |
| Location: Klamath County in Oregon | Bulletin Group: North Coast | River Group: Klamath |
| Issuance Time: | Sep 05 2026 at 7:03 AM PDT | Next Issuance: | Sep 06 2026 at 9:00 AM PDT
| |
| Action: N/A | Minor Flood: N/A | Moderate Flood: N/A | Major Flood: N/A |
# Tabular Observed and Forecast Hydrograph Information
#
# Location: Sprague River - Chiloquin (CHSO3)
#
# File Generation Time: 09/05/2026 at 07:05 AM PDT
# Data Interval: 1 Hour
#
# Most Recent Date & Time of Maximum Observed: 09/05/2026 at 04:00 AM PDT
# Maximum Observed Stage: 1.54 Feet
# Maximum Observed Flow: 200 cfs
#
# Earliest Date & Time of Maximum Forecast: 09/09/2026 at 05:00 AM PDT
# Maximum Forecast Stage: 1.57 Feet
# Maximum Forecast Flow: 212 cfs
#
# OBSERVED
#
# Date & Time (Local) Stage (Feet) Flow (cfs) Trend Observed Status
# ---------------------------------------------------------------------------------
08/31/2026 07 AM PDT 1.43 161 Not Applicable
08/31/2026 08 AM PDT 1.44 165 + Not Applicable
08/31/2026 09 AM PDT 1.44 165 0 Not Applicable
08/31/2026 10 AM PDT 1.44 165 0 Not Applicable
08/31/2026 11 AM PDT 1.44 165 0 Not Applicable
08/31/2026 12 PM PDT 1.44 165 0 Not Applicable
08/31/2026 01 PM PDT 1.45 168 + Not Applicable
08/31/2026 02 PM PDT 1.45 168 0 Not Applicable
08/31/2026 03 PM PDT 1.44 165 - Not Applicable
08/31/2026 04 PM PDT 1.45 168 + Not Applicable
08/31/2026 05 PM PDT 1.44 165 - Not Applicable
08/31/2026 06 PM PDT 1.44 165 0 Not Applicable
08/31/2026 07 PM PDT 1.44 165 0 Not Applicable
08/31/2026 08 PM PDT 1.44 165 0 Not Applicable
08/31/2026 09 PM PDT 1.44 165 0 Not Applicable
08/31/2026 10 PM PDT 1.44 165 0 Not Applicable
08/31/2026 11 PM PDT 1.43 161 - Not Applicable
09/01/2026 12 AM PDT 1.43 161 0 Not Applicable
09/01/2026 01 AM PDT 1.43 161 0 Not Applicable
09/01/2026 02 AM PDT 1.43 161 0 Not Applicable
09/01/2026 03 AM PDT 1.43 161 0 Not Applicable
09/01/2026 04 AM PDT 1.43 161 0 Not Applicable
09/01/2026 05 AM PDT 1.43 161 0 Not Applicable
09/01/2026 06 AM PDT 1.44 165 + Not Applicable
09/01/2026 07 AM PDT 1.44 165 0 Not Applicable
09/01/2026 08 AM PDT 1.44 165 0 Not Applicable
09/01/2026 09 AM PDT 1.45 168 + Not Applicable
09/01/2026 10 AM PDT 1.45 168 0 Not Applicable
09/01/2026 11 AM PDT 1.46 172 + Not Applicable
09/01/2026 12 PM PDT 1.45 168 - Not Applicable
09/01/2026 01 PM PDT 1.45 168 0 Not Applicable
09/01/2026 02 PM PDT 1.44 165 - Not Applicable
09/01/2026 03 PM PDT 1.45 168 + Not Applicable
09/01/2026 04 PM PDT 1.44 165 - Not Applicable
09/01/2026 05 PM PDT 1.45 168 + Not Applicable
09/01/2026 06 PM PDT 1.45 168 0 Not Applicable
09/01/2026 07 PM PDT 1.45 168 0 Not Applicable
09/01/2026 08 PM PDT 1.44 165 - Not Applicable
09/01/2026 09 PM PDT 1.44 165 0 Not Applicable
09/01/2026 10 PM PDT 1.45 168 + Not Applicable
09/01/2026 11 PM PDT 1.45 168 0 Not Applicable
09/02/2026 12 AM PDT 1.45 168 0 Not Applicable
09/02/2026 01 AM PDT 1.44 165 - Not Applicable
09/02/2026 02 AM PDT 1.44 165 0 Not Applicable
09/02/2026 03 AM PDT 1.44 165 0 Not Applicable
09/02/2026 04 AM PDT 1.45 168 + Not Applicable
09/02/2026 05 AM PDT 1.45 168 0 Not Applicable
09/02/2026 06 AM PDT 1.46 172 + Not Applicable
09/02/2026 07 AM PDT 1.46 172 0 Not Applicable
09/02/2026 08 AM PDT 1.46 172 0 Not Applicable
09/02/2026 09 AM PDT 1.46 172 0 Not Applicable
09/02/2026 10 AM PDT 1.46 172 0 Not Applicable
09/02/2026 11 AM PDT 1.46 172 0 Not Applicable
09/02/2026 12 PM PDT 1.47 175 + Not Applicable
09/02/2026 01 PM PDT 1.48 179 + Not Applicable
09/02/2026 02 PM PDT 1.48 179 0 Not Applicable
09/02/2026 03 PM PDT 1.48 179 0 Not Applicable
09/02/2026 04 PM PDT 1.48 179 0 Not Applicable
09/02/2026 05 PM PDT 1.49 182 + Not Applicable
09/02/2026 06 PM PDT 1.49 182 0 Not Applicable
09/02/2026 07 PM PDT 1.49 182 0 Not Applicable
09/02/2026 08 PM PDT 1.49 182 0 Not Applicable
09/02/2026 09 PM PDT 1.48 179 - Not Applicable
09/02/2026 10 PM PDT 1.49 182 + Not Applicable
09/02/2026 11 PM PDT 1.50 186 + Not Applicable
09/03/2026 12 AM PDT 1.50 186 0 Not Applicable
09/03/2026 01 AM PDT 1.50 186 0 Not Applicable
09/03/2026 02 AM PDT 1.50 186 0 Not Applicable
09/03/2026 03 AM PDT 1.50 186 0 Not Applicable
09/03/2026 04 AM PDT 1.50 186 0 Not Applicable
09/03/2026 05 AM PDT 1.50 186 0 Not Applicable
09/03/2026 06 AM PDT 1.50 186 0 Not Applicable
09/03/2026 07 AM PDT 1.50 186 0 Not Applicable
09/03/2026 08 AM PDT 1.51 189 + Not Applicable
09/03/2026 09 AM PDT 1.50 186 - Not Applicable
09/03/2026 10 AM PDT 1.50 186 0 Not Applicable
09/03/2026 11 AM PDT 1.50 186 0 Not Applicable
09/03/2026 12 PM PDT 1.51 189 + Not Applicable
09/03/2026 01 PM PDT 1.51 189 0 Not Applicable
09/03/2026 02 PM PDT 1.50 186 - Not Applicable
09/03/2026 03 PM PDT 1.50 186 0 Not Applicable
09/03/2026 04 PM PDT 1.50 186 0 Not Applicable
09/03/2026 05 PM PDT 1.50 186 0 Not Applicable
09/03/2026 06 PM PDT 1.49 182 - Not Applicable
09/03/2026 07 PM PDT 1.50 186 + Not Applicable
09/03/2026 08 PM PDT 1.50 186 0 Not Applicable
09/03/2026 09 PM PDT 1.50 186 0 Not Applicable
09/03/2026 10 PM PDT 1.49 182 - Not Applicable
09/03/2026 11 PM PDT 1.50 186 + Not Applicable
09/04/2026 12 AM PDT 1.50 186 0 Not Applicable
09/04/2026 01 AM PDT 1.50 186 0 Not Applicable
09/04/2026 02 AM PDT 1.50 186 0 Not Applicable
09/04/2026 03 AM PDT 1.50 186 0 Not Applicable
09/04/2026 04 AM PDT 1.50 186 0 Not Applicable
09/04/2026 05 AM PDT 1.51 189 + Not Applicable
09/04/2026 06 AM PDT 1.51 189 0 Not Applicable
09/04/2026 07 AM PDT 1.50 186 - Not Applicable
09/04/2026 08 AM PDT 1.51 189 + Not Applicable
09/04/2026 09 AM PDT 1.51 189 0 Not Applicable
09/04/2026 10 AM PDT 1.50 186 - Not Applicable
09/04/2026 11 AM PDT 1.51 189 + Not Applicable
09/04/2026 12 PM PDT 1.51 189 0 Not Applicable
09/04/2026 01 PM PDT 1.50 186 - Not Applicable
09/04/2026 02 PM PDT 1.50 186 0 Not Applicable
09/04/2026 03 PM PDT 1.51 189 + Not Applicable
09/04/2026 04 PM PDT 1.50 186 - Not Applicable
09/04/2026 05 PM PDT 1.50 186 0 Not Applicable
09/04/2026 06 PM PDT 1.50 186 0 Not Applicable
09/04/2026 07 PM PDT 1.50 186 0 Not Applicable
09/04/2026 08 PM PDT 1.52 193 + Not Applicable
09/04/2026 09 PM PDT 1.51 189 - Not Applicable
09/04/2026 10 PM PDT 1.52 193 + Not Applicable
09/04/2026 11 PM PDT 1.52 193 0 Not Applicable
09/05/2026 12 AM PDT 1.52 193 0 Not Applicable
09/05/2026 01 AM PDT 1.53 197 + Not Applicable
09/05/2026 02 AM PDT 1.52 193 - Not Applicable
09/05/2026 03 AM PDT 1.53 197 + Not Applicable
09/05/2026 04 AM PDT 1.54 200 + Not Applicable
09/05/2026 05 AM PDT 1.53 197 - Not Applicable
09/05/2026 06 AM PDT 1.53 197 0 Not Applicable
09/05/2026 07 AM PDT 1.53 197 0 Not Applicable
#
# FORECAST
#
# Date & Time (Local) Stage (Feet) Flow (cfs) Trend Forecast Status
# ---------------------------------------------------------------------------------
09/05/2026 08 AM PDT 1.53 197 Not Applicable
09/05/2026 09 AM PDT 1.53 197 0 Not Applicable
09/05/2026 10 AM PDT 1.54 200 + Not Applicable
09/05/2026 11 AM PDT 1.54 200 0 Not Applicable
09/05/2026 12 PM PDT 1.54 200 0 Not Applicable
09/05/2026 01 PM PDT 1.54 200 0 Not Applicable
09/05/2026 02 PM PDT 1.54 200 0 Not Applicable
09/05/2026 03 PM PDT 1.54 200 0 Not Applicable
09/05/2026 04 PM PDT 1.55 204 + Not Applicable
09/05/2026 05 PM PDT 1.55 204 0 Not Applicable
09/05/2026 06 PM PDT 1.55 204 0 Not Applicable
09/05/2026 07 PM PDT 1.55 204 0 Not Applicable
09/05/2026 08 PM PDT 1.55 204 0 Not Applicable
09/05/2026 09 PM PDT 1.55 204 0 Not Applicable
09/05/2026 10 PM PDT 1.55 204 0 Not Applicable
09/05/2026 11 PM PDT 1.56 208 + Not Applicable
09/06/2026 12 AM PDT 1.56 208 0 Not Applicable
09/06/2026 01 AM PDT 1.56 208 0 Not Applicable
09/06/2026 02 AM PDT 1.56 208 0 Not Applicable
09/06/2026 03 AM PDT 1.56 208 0 Not Applicable
09/06/2026 04 AM PDT 1.56 208 0 Not Applicable
09/06/2026 05 AM PDT 1.56 208 0 Not Applicable
09/06/2026 06 AM PDT 1.56 208 0 Not Applicable
09/06/2026 07 AM PDT 1.56 208 0 Not Applicable
09/06/2026 08 AM PDT 1.56 208 0 Not Applicable
09/06/2026 09 AM PDT 1.56 208 0 Not Applicable
09/06/2026 10 AM PDT 1.56 208 0 Not Applicable
09/06/2026 11 AM PDT 1.56 208 0 Not Applicable
09/06/2026 12 PM PDT 1.56 208 0 Not Applicable
09/06/2026 01 PM PDT 1.56 208 0 Not Applicable
09/06/2026 02 PM PDT 1.56 208 0 Not Applicable
09/06/2026 03 PM PDT 1.56 208 0 Not Applicable
09/06/2026 04 PM PDT 1.56 208 0 Not Applicable
09/06/2026 05 PM PDT 1.56 208 0 Not Applicable
09/06/2026 06 PM PDT 1.56 208 0 Not Applicable
09/06/2026 07 PM PDT 1.56 208 0 Not Applicable
09/06/2026 08 PM PDT 1.56 208 0 Not Applicable
09/06/2026 09 PM PDT 1.56 208 0 Not Applicable
09/06/2026 10 PM PDT 1.56 208 0 Not Applicable
09/06/2026 11 PM PDT 1.56 208 0 Not Applicable
09/07/2026 12 AM PDT 1.56 208 0 Not Applicable
09/07/2026 01 AM PDT 1.55 204 - Not Applicable
09/07/2026 02 AM PDT 1.55 204 0 Not Applicable
09/07/2026 03 AM PDT 1.55 204 0 Not Applicable
09/07/2026 04 AM PDT 1.55 204 0 Not Applicable
09/07/2026 05 AM PDT 1.55 204 0 Not Applicable
09/07/2026 06 AM PDT 1.55 204 0 Not Applicable
09/07/2026 07 AM PDT 1.55 204 0 Not Applicable
09/07/2026 08 AM PDT 1.55 204 0 Not Applicable
09/07/2026 09 AM PDT 1.55 204 0 Not Applicable
09/07/2026 10 AM PDT 1.55 204 0 Not Applicable
09/07/2026 11 AM PDT 1.55 204 0 Not Applicable
09/07/2026 12 PM PDT 1.55 204 0 Not Applicable
09/07/2026 01 PM PDT 1.55 204 0 Not Applicable
09/07/2026 02 PM PDT 1.54 200 - Not Applicable
09/07/2026 03 PM PDT 1.54 200 0 Not Applicable
09/07/2026 04 PM PDT 1.54 200 0 Not Applicable
09/07/2026 05 PM PDT 1.54 200 0 Not Applicable
09/07/2026 06 PM PDT 1.54 200 0 Not Applicable
09/07/2026 07 PM PDT 1.54 200 0 Not Applicable
09/07/2026 08 PM PDT 1.54 200 0 Not Applicable
09/07/2026 09 PM PDT 1.54 200 0 Not Applicable
09/07/2026 10 PM PDT 1.54 200 0 Not Applicable
09/07/2026 11 PM PDT 1.54 200 0 Not Applicable
09/08/2026 12 AM PDT 1.54 200 0 Not Applicable
09/08/2026 01 AM PDT 1.54 200 0 Not Applicable
09/08/2026 02 AM PDT 1.54 200 0 Not Applicable
09/08/2026 03 AM PDT 1.54 200 0 Not Applicable
09/08/2026 04 AM PDT 1.54 200 0 Not Applicable
09/08/2026 05 AM PDT 1.54 200 0 Not Applicable
09/08/2026 06 AM PDT 1.54 200 0 Not Applicable
09/08/2026 07 AM PDT 1.54 200 0 Not Applicable
09/08/2026 08 AM PDT 1.54 200 0 Not Applicable
09/08/2026 09 AM PDT 1.54 200 0 Not Applicable
09/08/2026 10 AM PDT 1.54 200 0 Not Applicable
09/08/2026 11 AM PDT 1.54 200 0 Not Applicable
09/08/2026 12 PM PDT 1.54 200 0 Not Applicable
09/08/2026 01 PM PDT 1.54 200 0 Not Applicable
09/08/2026 02 PM PDT 1.55 204 + Not Applicable
09/08/2026 03 PM PDT 1.55 204 0 Not Applicable
09/08/2026 04 PM PDT 1.55 204 0 Not Applicable
09/08/2026 05 PM PDT 1.55 204 0 Not Applicable
09/08/2026 06 PM PDT 1.55 204 0 Not Applicable
09/08/2026 07 PM PDT 1.55 204 0 Not Applicable
09/08/2026 08 PM PDT 1.56 208 + Not Applicable
09/08/2026 09 PM PDT 1.56 208 0 Not Applicable
09/08/2026 10 PM PDT 1.56 208 0 Not Applicable
09/08/2026 11 PM PDT 1.56 208 0 Not Applicable
09/09/2026 12 AM PDT 1.56 208 0 Not Applicable
09/09/2026 01 AM PDT 1.56 208 0 Not Applicable
09/09/2026 02 AM PDT 1.56 208 0 Not Applicable
09/09/2026 03 AM PDT 1.56 208 0 Not Applicable
09/09/2026 04 AM PDT 1.56 208 0 Not Applicable
09/09/2026 05 AM PDT 1.57 212 + Not Applicable
09/09/2026 06 AM PDT 1.57 212 0 Not Applicable
09/09/2026 07 AM PDT 1.57 212 0 Not Applicable
09/09/2026 08 AM PDT 1.57 212 0 Not Applicable
09/09/2026 09 AM PDT 1.57 212 0 Not Applicable
09/09/2026 10 AM PDT 1.57 212 0 Not Applicable
09/09/2026 11 AM PDT 1.57 212 0 Not Applicable
09/09/2026 12 PM PDT 1.57 212 0 Not Applicable
09/09/2026 01 PM PDT 1.57 212 0 Not Applicable
09/09/2026 02 PM PDT 1.56 208 - Not Applicable
09/09/2026 03 PM PDT 1.56 208 0 Not Applicable
09/09/2026 04 PM PDT 1.56 208 0 Not Applicable
09/09/2026 05 PM PDT 1.56 208 0 Not Applicable
09/09/2026 06 PM PDT 1.56 208 0 Not Applicable
09/09/2026 07 PM PDT 1.56 208 0 Not Applicable
09/09/2026 08 PM PDT 1.56 208 0 Not Applicable
09/09/2026 09 PM PDT 1.56 208 0 Not Applicable
09/09/2026 10 PM PDT 1.56 208 0 Not Applicable
09/09/2026 11 PM PDT 1.56 208 0 Not Applicable
09/10/2026 12 AM PDT 1.55 204 - Not Applicable
09/10/2026 01 AM PDT 1.55 204 0 Not Applicable
09/10/2026 02 AM PDT 1.55 204 0 Not Applicable
09/10/2026 03 AM PDT 1.55 204 0 Not Applicable
09/10/2026 04 AM PDT 1.55 204 0 Not Applicable
09/10/2026 05 AM PDT 1.55 204 0 Not Applicable
09/10/2026 06 AM PDT 1.54 200 - Not Applicable
#
# NOTE 1: Stages are rounded to the nearest hundredth (.01) of a foot.
# NOTE 2: Flows are rounded to the nearest (1) cfs.
# NOTE 3: Trends are determined using hourly change in unrounded stage and flow.
# NOTE 4: Maximum Values are determined using unrounded stage and flow.
|